Satellite: NOAA-12 Catalog number: 21263 Epoch time: 13034.60225515 Element set: 707 Inclination: 098.7114 deg RA of node: 060.9662 deg Eccentricity: 0.0012902 Arg of perigee: 248.0115 deg Mean anomaly: 111.9695 deg Mean motion: 14.25545194 rev/day Decay rate: 1.9e-07 rev/day^2 Epoch rev: 12952 Checksum: 274
Satellite: MET-3/5 Catalog number: 21655 Epoch time: 13034.47105607 Element set: 611 Inclination: 082.5600 deg RA of node: 348.7696 deg Eccentricity: 0.0014555 Arg of perigee: 104.1769 deg Mean anomaly: 256.0971 deg Mean motion: 13.17043728 rev/day Decay rate: 3.0e-07 rev/day^2 Epoch rev: 3233 Checksum: 279
Satellite: MET-2/21 Catalog number: 22782 Epoch time: 13034.49025505 Element set: 654 Inclination: 082.5477 deg RA of node: 208.9820 deg Eccentricity: 0.0021988 Arg of perigee: 221.3984 deg Mean anomaly: 190.7372 deg Mean motion: 13.83698067 rev/day Decay rate: 4.5e-07 rev/day^2 Epoch rev: 98115 Checksum: 325
Satellite: OKEAN-4 Catalog number: 23317 Epoch time: 13034.57419881 Element set: 129 Inclination: 082.5401 deg RA of node: 174.8081 deg Eccentricity: 0.0020275 Arg of perigee: 311.2882 deg Mean anomaly: 048.6585 deg Mean motion: 14.84231116 rev/day Decay rate: 6.51e-06 rev/day^2 Epoch rev: 98912 Checksum: 294
Satellite: NOAA-14 Catalog number: 23455 Epoch time: 13034.59579198 Element set: 189 Inclination: 098.8124 deg RA of node: 121.0230 deg Eccentricity: 0.0010008 Arg of perigee: 022.4285 deg Mean anomaly: 337.7324 deg Mean motion: 14.13891690 rev/day Decay rate: -.00000000 rev/day^2 Epoch rev: 93349 Checksum: 282
Satellite: NOAA-15 Catalog number: 25338 Epoch time: 13034.25438254 Element set: 602 Inclination: 098.7132 deg RA of node: 025.2607 deg Eccentricity: 0.0011072 Arg of perigee: 153.1454 deg Mean anomaly: 207.0295 deg Mean motion: 14.25174181 rev/day Decay rate: 2.3e-07 rev/day^2 Epoch rev: 76576 Checksum: 271
Satellite: RESURS Catalog number: 25394 Epoch time: 13034.55334486 Element set: 297 Inclination: 098.3471 deg RA of node: 016.9060 deg Eccentricity: 0.0000172 Arg of perigee: 298.7779 deg Mean anomaly: 211.0611 deg Mean motion: 14.24319556 rev/day Decay rate: -7.0e-08 rev/day^2 Epoch rev: 75733 Checksum: 299
Satellite: FENGYUN1 Catalog number: 25730 Epoch time: 13033.94741810 Element set: 799 Inclination: 098.8671 deg RA of node: 355.2251 deg Eccentricity: 0.0024567 Arg of perigee: 062.2998 deg Mean anomaly: 329.5794 deg Mean motion: 14.10131033 rev/day Decay rate: 2.072e-05 rev/day^2 Epoch rev: 70712 Checksum: 301
Satellite: OKEAN-0 Catalog number: 25860 Epoch time: 13033.88691175 Element set: 858 Inclination: 097.9728 deg RA of node: 358.2891 deg Eccentricity: 0.0001271 Arg of perigee: 133.3759 deg Mean anomaly: 282.7600 deg Mean motion: 14.74469319 rev/day Decay rate: 3.39e-06 rev/day^2 Epoch rev: 72856 Checksum: 343
Satellite: NOAA-16 Catalog number: 26536 Epoch time: 13034.26800547 Element set: 80 Inclination: 099.0622 deg RA of node: 085.5884 deg Eccentricity: 0.0011014 Arg of perigee: 150.2956 deg Mean anomaly: 209.8896 deg Mean motion: 14.12835775 rev/day Decay rate: 3.09e-06 rev/day^2 Epoch rev: 63766 Checksum: 316
Satellite: NOAA-17 Catalog number: 27453 Epoch time: 13034.46539033 Element set: 11 Inclination: 098.3196 deg RA of node: 055.5959 deg Eccentricity: 0.0011543 Arg of perigee: 193.5132 deg Mean anomaly: 166.5765 deg Mean motion: 14.24536389 rev/day Decay rate: 3.4e-07 rev/day^2 Epoch rev: 55168 Checksum: 311
Satellite: NOAA-18 Catalog number: 28654 Epoch time: 13034.33118564 Element set: 493 Inclination: 099.0812 deg RA of node: 000.7465 deg Eccentricity: 0.0013796 Arg of perigee: 222.6310 deg Mean anomaly: 137.3810 deg Mean motion: 14.11765768 rev/day Decay rate: 5.5e-07 rev/day^2 Epoch rev: 39717 Checksum: 302
Satellite: NOAA-19 Catalog number: 33591 Epoch time: 13034.53289305 Element set: 678 Inclination: 098.8892 deg RA of node: 337.7413 deg Eccentricity: 0.0014928 Arg of perigee: 087.5298 deg Mean anomaly: 272.7546 deg Mean motion: 14.11454756 rev/day Decay rate: 4.05e-06 rev/day^2 Epoch rev: 20564 Checksum: 340
/EX SB KEPS @ AMSAT $ORB13034.M Orbital Elements 13034.MISC
HR AMSAT ORBITAL ELEMENTS FOR MANNED AND MISCELLANEOUS SATELLITES FROM WA5QGD FORT WORTH,TX February 3, 2013 BID: ORB13034.M TO ALL RADIO AMATEURS BT
Satellite: HUBBLE Catalog number: 20580 Epoch time: 13033.49169982 Element set: 167 Inclination: 028.4698 deg RA of node: 075.5799 deg Eccentricity: 0.0002958 Arg of perigee: 358.3587 deg Mean anomaly: 001.6996 deg Mean motion: 15.03254794 rev/day Decay rate: 9.92e-06 rev/day^2 Epoch rev: 4940 Checksum: 346
Satellite: ISS Catalog number: 25544 Epoch time: 13034.88488403 Element set: 143 Inclination: 051.6488 deg RA of node: 050.5014 deg Eccentricity: 0.0012572 Arg of perigee: 232.0608 deg Mean anomaly: 192.2793 deg Mean motion: 15.52273302 rev/day Decay rate: 8.530e-05 rev/day^2 Epoch rev: 81400 Checksum: 267
Satellite: CO-58 Catalog number: 28895 Epoch time: 13033.64423744 Element set: 395 Inclination: 097.8840 deg RA of node: 255.4129 deg Eccentricity: 0.0018086 Arg of perigee: 143.1739 deg Mean anomaly: 217.0693 deg Mean motion: 14.60951879 rev/day Decay rate: 3.05e-06 rev/day^2 Epoch rev: 38730 Checksum: 338
Satellite: FALCON Catalog number: 30776 Epoch time: 13034.13732832 Element set: 542 Inclination: 035.4317 deg RA of node: 304.1762 deg Eccentricity: 0.0002836 Arg of perigee: 243.2180 deg Mean anomaly: 259.9930 deg Mean motion: 15.09492184 rev/day Decay rate: 3.330e-05 rev/day^2 Epoch rev: 32514 Checksum: 271
Satellite: MAST Catalog number: 31126 Epoch time: 13034.12544389 Element set: 674 Inclination: 097.8756 deg RA of node: 037.7479 deg Eccentricity: 0.0094399 Arg of perigee: 110.5080 deg Mean anomaly: 250.6270 deg Mean motion: 14.54421772 rev/day Decay rate: 2.01e-06 rev/day^2 Epoch rev: 30783 Checksum: 297
Satellite: CAPE1 Catalog number: 31130 Epoch time: 13034.48599245 Element set: 686 Inclination: 097.8880 deg RA of node: 034.4054 deg Eccentricity: 0.0101773 Arg of perigee: 123.9936 deg Mean anomaly: 237.0977 deg Mean motion: 14.53287798 rev/day Decay rate: 2.88e-06 rev/day^2 Epoch rev: 30736 Checksum: 333
Satellite: COMPASS Catalog number: 32787 Epoch time: 13034.49298115 Element set: 534 Inclination: 097.7706 deg RA of node: 096.4621 deg Eccentricity: 0.0015071 Arg of perigee: 028.7941 deg Mean anomaly: 085.0464 deg Mean motion: 14.84953759 rev/day Decay rate: 1.688e-05 rev/day^2 Epoch rev: 25812 Checksum: 329
Satellite: AAUSAT2 Catalog number: 32788 Epoch time: 13034.18893784 Element set: 525 Inclination: 097.7714 deg RA of node: 096.6925 deg Eccentricity: 0.0014635 Arg of perigee: 029.6336 deg Mean anomaly: 003.9098 deg Mean motion: 14.85365949 rev/day Decay rate: 1.681e-05 rev/day^2 Epoch rev: 25811 Checksum: 345
Satellite: DO-64 Catalog number: 32789 Epoch time: 13034.29435381 Element set: 548 Inclination: 097.7857 deg RA of node: 099.8374 deg Eccentricity: 0.0014112 Arg of perigee: 023.7458 deg Mean anomaly: 034.6040 deg Mean motion: 14.87540842 rev/day Decay rate: 3.116e-05 rev/day^2 Epoch rev: 25821 Checksum: 321
Satellite: CO-66 Catalog number: 32791 Epoch time: 13033.84486007 Element set: 521 Inclination: 097.7713 deg RA of node: 095.3533 deg Eccentricity: 0.0015588 Arg of perigee: 031.1086 deg Mean anomaly: 081.3754 deg Mean motion: 14.84196800 rev/day Decay rate: 1.073e-05 rev/day^2 Epoch rev: 25794 Checksum: 313
Satellite: RS-30 Catalog number: 32953 Epoch time: 13034.85363629 Element set: 562 Inclination: 082.5038 deg RA of node: 151.0967 deg Eccentricity: 0.0019375 Arg of perigee: 160.8441 deg Mean anomaly: 199.3375 deg Mean motion: 12.43031070 rev/day Decay rate: 1.0e-07 rev/day^2 Epoch rev: 21334 Checksum: 278
Satellite: METEOR-M Catalog number: 35865 Epoch time: 13034.73570517 Element set: 189 Inclination: 098.6224 deg RA of node: 090.3203 deg Eccentricity: 0.0003234 Arg of perigee: 093.9440 deg Mean anomaly: 266.2105 deg Mean motion: 14.21879627 rev/day Decay rate: -8.0e-08 rev/day^2 Epoch rev: 17550 Checksum: 288
Satellite: RS-38 Catalog number: 35869 Epoch time: 13034.72094621 Element set: 154 Inclination: 098.6172 deg RA of node: 090.2561 deg Eccentricity: 0.0005379 Arg of perigee: 097.0011 deg Mean anomaly: 263.1777 deg Mean motion: 14.22111595 rev/day Decay rate: 1.6e-07 rev/day^2 Epoch rev: 17552 Checksum: 294
Satellite: JUGNU Catalog number: 37839 Epoch time: 13033.39412593 Element set: 325 Inclination: 019.9624 deg RA of node: 043.5388 deg Eccentricity: 0.0018281 Arg of perigee: 237.5289 deg Mean anomaly: 122.3311 deg Mean motion: 14.12124701 rev/day Decay rate: 6.20e-06 rev/day^2 Epoch rev: 6782 Checksum: 280
Satellite: SRMSAT Catalog number: 37841 Epoch time: 13034.39953905 Element set: 325 Inclination: 019.9728 deg RA of node: 046.8750 deg Eccentricity: 0.0012329 Arg of perigee: 207.9359 deg Mean anomaly: 152.0403 deg Mean motion: 14.10198038 rev/day Decay rate: 2.64e-06 rev/day^2 Epoch rev: 6786 Checksum: 303
Satellite: RAX-2 Catalog number: 37853 Epoch time: 13034.49668456 Element set: 416 Inclination: 101.7118 deg RA of node: 186.3580 deg Eccentricity: 0.0239099 Arg of perigee: 050.2194 deg Mean anomaly: 311.9794 deg Mean motion: 14.82297599 rev/day Decay rate: 1.763e-05 rev/day^2 Epoch rev: 6863 Checksum: 340
Satellite: AUBIESAT Catalog number: 37854 Epoch time: 13033.90490333 Element set: 414 Inclination: 101.7147 deg RA of node: 186.0972 deg Eccentricity: 0.0239459 Arg of perigee: 050.9232 deg Mean anomaly: 311.2999 deg Mean motion: 14.82888082 rev/day Decay rate: 1.868e-05 rev/day^2 Epoch rev: 6855 Checksum: 322
